Flag for U.S.A. Weather past 2 weeks in Loma Linda, California, U.S.A.

Now
65 °F

Clear.


Feels Like: 65 °F
Forecast: 67 / 98 °F
Wind: No wind

Location: Riverside / March Air Force Base

Current Time: Aug 5, 2015 at 6:39:40 AM

Latest Report: Aug 5, 2015 at 5:58 AM


Visibility: 10 mi

Pressure: 29.92 "Hg

Humidity: 67%

Dew point: 54 °F

Location of Loma LindaLocation

Historic Weather in Loma Linda — Graph

°F

Loma Linda temperature yesterday

Maximum temperature yesterday: 96 °F (at 2:58 PM)
Minimum temperature yesterday: 63 °F (at 5:58 AM)
Average temperature yesterday: 79 °F

Past Weeks' High & Low Weather Summary

 TemperatureHumidityPressure
High96 °F (Jul 29, 1:58 PM)100% (Jul 21, 4:58 AM)30.06 "Hg (Jul 21, 4:58 AM)
Low61 °F (Jul 28, 5:58 AM)14% (Aug 4, 5:58 PM)29.80 "Hg (Jul 28, 4:58 PM)
Average77 °F62%29.91 "Hg
* Reported Jul 21 4:58 AM — Aug 5 4:58 AM, Loma Linda, Weather by CustomWeather, © 2015

Note: Actual official high and low records may vary slightly from our data, if they occured in-between our weather recording intervals... More about our weather records

Advertising

Loma Linda weather history for previous 24 hours

 ConditionsComfort  
Time TempWeatherWind HumidityBarometerVisibility
4:58 AM
Wed, Aug 5
67 °FClear.No wind62%29.90 "Hg10 mi
3:58 AM67 °FClear.No wind59%29.90 "Hg10 mi
2:58 AM67 °FClear.1 mph62%29.90 "Hg10 mi
1:58 AM69 °FClear.No wind59%29.90 "Hg10 mi
12:58 AM69 °FClear.2 mph58%29.91 "Hg10 mi
11:58 PM
Tue, Aug 4
71 °FClear.3 mph54%29.93 "Hg10 mi
10:58 PM74 °FClear.6 mph47%29.93 "Hg10 mi
9:58 PM77 °FClear.1 mph41%29.91 "Hg10 mi
8:58 PM79 °FClear.2 mph41%29.90 "Hg10 mi
7:58 PM83 °FSunny.10 mph39%29.89 "Hg10 mi
6:58 PM89 °FSunny.13 mph22%29.88 "Hg10 mi
5:58 PM92 °FSunny.14 mph14%29.87 "Hg10 mi
4:58 PM93 °FSunny.16 mph20%29.87 "Hg10 mi
3:58 PM95 °FSunny.14 mph20%29.87 "Hg10 mi
2:58 PM96 °FSunny.12 mph19%29.88 "Hg10 mi
1:58 PM94 °FSunny.10 mph23%29.89 "Hg10 mi
12:58 PM92 °FSunny.9 mph27%29.91 "Hg10 mi
11:58 AM89 °FSunny.9 mph27%29.93 "Hg10 mi
10:58 AM87 °FSunny.6 mph34%29.93 "Hg10 mi
9:58 AM82 °FSunny.No wind47%29.92 "Hg10 mi
8:58 AM76 °FSunny.2 mph65%29.92 "Hg10 mi
7:58 AM72 °FSunny.No wind75%29.91 "Hg10 mi
6:58 AM67 °FClear.No wind84%29.90 "Hg10 mi
Weather by CustomWeather, © 2015

See weather overviewHow to use our weather pages